ECMWFNIL_700_spd_132.txt.gz
Wind_Speed
12 13 12 12 12 11 11 11 11 12 11 11 10 10 10 10 11 11 10 10 10 10 11 11 12 11 10 10 10 10 10 9 9 9 9 8 8 8 8 7 7 7
11 11 11 11 11 10 10 10 10 11 11 11 11 10 10 10 10 11 10 11 11 11 11 12 12 12 11 11 10 10 10 10 9 9 9 9 9 8 8 8 7 8
11 11 10 10 10 10 10 10 9 10 10 11 10 10 9 9 10 10 10 10 11 11 12 12 12 12 12 11 11 11 11 11 11 10 10 10 9 8 8 8 8 8
12 11 11 11 11 10 10 10 10 10 10 10 10 10 9 9 9 9 9 10 10 11 11 11 11 11 11 11 11 11 11 11 11 11 11 10 10 9 9 9 8 8
13 13 13 13 12 11 10 10 11 10 10 10 10 10 9 9 9 9 9 9 9 10 10 11 11 11 11 11 12 12 11 12 12 12 12 11 11 10 10 10 10 10
14 14 14 14 13 12 11 11 12 11 11 10 10 10 10 10 10 9 9 9 9 9 10 10 11 11 11 11 11 11 11 12 12 12 12 12 12 11 11 11 11 11
15 15 15 15 14 14 13 12 12 12 12 11 10 10 10 11 11 10 10 9 9 10 10 10 11 11 10 10 10 11 11 11 12 12 12 13 13 13 12 12 12 12
17 16 16 16 15 15 14 13 13 12 12 12 11 11 11 11 11 11 11 11 11 11 11 11 11 11 10 10 10 10 10 10 10 11 11 12 12 13 13 13 13 13
18 17 17 17 16 16 15 14 14 14 13 13 12 12 12 12 12 12 12 12 12 12 12 12 11 11 10 10 11 10 10 10 10 11 11 11 11 12 12 12 13 13
19 19 18 18 17 17 16 16 15 15 15 14 14 14 14 13 13 13 13 13 13 13 13 13 12 12 11 11 11 11 11 11 11 11 11 11 11 11 11 12 12 13
21 20 20 19 18 18 17 17 17 17 16 16 15 15 15 15 14 14 14 14 14 14 14 14 14 13 12 12 12 12 11 11 11 11 11 11 11 11 11 11 11 12
23 23 21 21 20 19 19 19 19 18 18 17 17 17 16 16 15 15 15 15 15 15 15 15 15 14 14 13 13 12 12 12 12 11 11 12 12 11 11 11 11 11
26 25 24 23 22 22 22 21 21 20 19 19 19 18 18 17 17 16 16 16 16 16 15 15 15 15 14 14 14 14 13 13 13 13 12 13 12 12 11 11 11 11
26 27 27 26 26 25 24 24 23 22 21 21 21 20 20 19 19 18 17 17 17 17 16 16 16 16 15 15 15 15 15 14 14 14 14 14 13 13 13 13 12 12
26 27 28 28 28 27 26 26 25 24 24 23 23 22 22 21 21 20 20 19 18 18 17 17 17 17 16 16 16 15 15 15 15 15 15 15 15 15 14 14 14 14
26 26 26 28 28 28 28 27 27 26 26 25 25 24 24 23 23 22 21 21 20 19 19 18 18 19 18 17 17 16 16 16 16 16 16 16 16 16 16 16 16 16
29 27 27 27 28 28 28 27 28 28 28 27 26 26 25 25 24 23 23 22 22 21 21 20 22 21 19 18 18 18 17 17 16 16 16 17 17 17 17 17 18 18
32 31 30 29 28 28 28 28 29 29 29 29 28 28 27 26 25 24 24 23 23 23 23 24 24 22 20 20 20 19 19 18 18 18 18 18 18 18 18 18 19 19
34 34 33 31 29 30 30 30 31 31 31 30 30 30 28 27 26 25 24 25 25 25 26 27 25 23 22 22 22 21 21 20 19 19 19 19 20 20 20 20 20 20
34 34 35 34 33 33 33 33 32 32 32 31 31 31 29 27 27 26 26 26 27 27 28 28 26 24 24 23 22 22 22 21 21 20 20 21 21 21 21 21 21 21
34 34 35 36 36 37 37 35 34 33 33 32 31 30 29 28 27 27 27 27 28 29 29 28 26 26 25 24 24 23 23 23 22 22 22 22 23 22 22 22 22 23
34 34 34 35 37 38 38 37 36 35 35 32 29 29 29 27 27 28 28 28 29 30 30 27 26 26 26 25 25 24 23 23 23 23 23 23 23 23 23 24 24 24
31 32 31 32 34 35 35 36 37 37 36 32 28 29 29 26 26 28 28 28 29 30 30 28 27 27 26 25 25 24 23 23 23 23 23 23 23 23 23 24 25 24
25 26 27 29 30 30 31 33 35 36 36 32 28 30 30 27 27 28 29 30 30 29 28 28 27 27 25 25 25 24 24 24 24 24 24 23 24 24 24 25 25 24
20 22 23 24 25 25 26 28 29 31 32 30 29 32 31 27 26 29 32 33 30 27 26 26 26 26 26 25 26 26 26 26 26 26 25 24 25 26 25 26 26 26
21 22 21 21 21 21 21 23 24 25 27 29 29 31 32 29 27 29 31 31 29 26 26 25 24 25 25 25 25 25 26 26 26 26 25 25 26 27 26 27 28 28

ECMWFNIL_700_spd_135.txt.gz
Wind_Speed
14 13 13 12 11 11 10 10 11 10 10 10 10 10 11 10 10 9 9 9 9 9 10 10 10 10 11 11 10 10 10 9 8 8 8 8 8 8 7 7 8 8
14 14 13 12 12 11 11 10 10 10 11 10 10 9 10 10 10 10 9 9 9 9 10 10 10 10 10 11 11 10 10 10 9 9 9 9 8 8 8 7 8 8
15 14 13 12 12 12 12 12 11 11 10 10 9 9 9 9 9 9 9 9 9 9 9 10 10 10 11 10 10 11 11 11 10 9 9 9 9 9 9 8 8 8
15 15 14 14 13 13 12 12 11 11 10 10 9 9 9 9 8 8 9 9 10 10 10 10 10 10 10 10 10 11 11 10 10 10 10 9 9 10 10 10 10 9
14 15 15 15 14 13 12 11 11 11 10 10 10 9 9 8 8 7 8 8 9 9 9 10 10 10 10 10 10 11 11 10 10 11 11 10 10 10 11 11 11 11
14 14 14 14 14 13 12 12 11 11 10 10 10 10 10 9 9 8 7 7 8 8 9 9 9 10 10 10 10 11 11 11 11 11 11 11 11 11 11 11 11 11
14 13 13 13 13 13 13 12 11 11 10 9 9 10 10 10 10 9 8 8 8 8 9 9 9 9 9 9 10 10 11 11 11 11 12 12 12 12 12 12 12 12
14 14 13 13 12 12 12 12 11 11 11 10 9 10 10 11 11 10 10 9 9 9 9 9 9 9 9 9 9 9 9 10 10 11 11 11 12 13 13 13 12 12
15 15 14 14 13 13 12 12 12 11 11 10 10 11 11 11 11 11 11 10 10 10 10 9 9 9 9 9 9 9 9 9 9 9 9 10 10 11 11 11 11 12
15 15 15 15 15 14 13 12 12 13 12 11 11 12 12 11 11 11 11 11 11 11 11 10 10 10 9 9 9 9 9 9 9 9 9 9 9 9 10 10 10 11
15 15 16 15 15 15 15 14 14 14 13 12 12 13 12 12 12 11 11 11 12 11 11 11 11 11 10 10 10 9 9 9 9 9 9 9 9 9 9 9 10 10
17 17 16 16 16 16 15 15 15 15 14 13 13 13 13 13 12 12 12 12 12 12 12 12 12 12 12 11 11 10 9 9 9 9 9 9 9 9 9 9 9 10
20 19 18 18 17 17 17 16 16 16 15 14 14 13 13 13 13 14 14 14 13 13 13 13 13 13 13 12 12 12 11 11 10 10 9 10 9 9 9 9 9 10
21 21 21 20 20 19 19 19 18 18 17 17 16 14 14 14 14 14 15 15 15 14 14 14 14 14 14 14 13 14 14 13 12 11 10 11 11 10 10 10 10 10
22 22 22 22 22 21 21 21 20 20 19 19 18 17 15 15 15 15 16 16 16 16 14 14 14 15 15 15 14 15 15 14 14 14 12 11 11 11 10 10 11 11
24 24 23 23 23 22 22 23 23 22 21 20 20 19 17 17 17 17 17 17 18 17 15 14 15 16 16 15 14 14 15 15 15 14 12 11 11 11 11 11 11 12
27 26 25 24 24 24 24 24 24 23 23 22 22 21 20 19 19 19 19 18 18 17 16 16 18 18 18 17 15 14 15 15 15 13 12 12 12 12 12 12 12 13
32 30 28 27 26 27 27 26 25 24 24 24 23 22 22 21 21 21 21 21 20 19 18 19 21 20 19 19 17 16 16 16 15 14 14 15 14 13 14 14 13 14
36 35 33 31 30 30 29 27 26 25 25 25 25 24 24 23 23 22 22 22 22 21 21 23 23 21 19 19 19 19 19 17 17 16 16 17 16 16 16 16 15 16
39 39 38 37 35 33 31 28 28 27 26 25 26 25 25 25 25 24 24 23 23 24 26 27 25 22 21 21 20 20 20 19 19 18 18 19 18 18 19 19 18 18
41 40 39 37 36 35 33 32 31 30 28 27 27 27 27 27 26 26 26 25 24 26 28 27 25 24 24 23 22 23 22 22 21 20 20 20 19 20 22 22 21 20
39 39 38 37 37 36 36 35 35 33 32 30 29 30 30 30 29 29 29 28 27 29 30 27 24 24 24 23 23 23 23 24 23 22 23 22 21 23 25 23 21 21
37 36 36 35 36 36 37 36 36 36 35 34 33 32 33 33 34 34 32 29 29 30 29 26 24 24 24 23 24 24 23 24 24 24 25 25 24 26 27 25 23 23
34 33 32 32 34 36 36 36 36 36 35 36 36 36 36 37 37 35 31 29 29 29 28 26 25 25 26 25 24 24 24 24 25 26 26 26 25 26 27 28 27 27
32 31 30 31 32 34 34 34 34 33 31 32 34 35 37 39 39 36 32 30 28 26 25 24 24 24 25 26 25 24 24 24 26 26 26 26 26 28 29 29 29 29
30 30 29 28 29 29 30 30 29 28 25 25 27 29 31 35 38 36 33 30 28 26 23 24 25 25 24 24 24 24 25 25 26 27 27 29 30 31 30 30 30 31

ECMWFNIL_700_spd_138.txt.gz
Wind_Speed
11 11 10 10 10 10 10 9 9 9 8 8 7 6 6 6 6 5 5 5 5 6 7 7 8 9 8 8 8 8 8 8 8 9 8 8 8 7 6 7 7 7
13 12 11 10 10 9 10 9 9 9 8 8 7 6 6 6 6 6 6 6 6 6 7 8 9 9 9 9 8 8 7 8 7 7 8 8 7 7 7 7 7 7
13 13 12 11 11 10 10 10 9 9 9 8 8 7 7 7 6 7 7 7 6 7 8 9 9 10 10 9 9 8 7 7 7 6 7 7 7 7 7 7 7 6
13 14 13 12 12 11 11 10 10 9 9 9 8 8 8 7 6 7 7 8 8 8 8 8 9 9 9 9 9 9 8 8 8 7 7 7 7 8 8 8 7 6
13 13 14 13 12 12 11 10 10 9 9 9 8 8 7 6 6 6 7 7 7 8 8 8 8 9 9 9 9 9 9 9 9 9 8 8 8 8 9 9 8 7
12 13 13 12 11 11 11 10 10 10 9 9 9 8 8 7 7 6 5 5 6 7 7 7 8 8 8 9 9 9 9 9 8 8 9 9 9 9 10 10 9 9
13 13 13 12 11 11 11 10 10 10 9 9 9 8 8 8 7 6 6 5 5 5 6 7 7 7 7 7 7 7 8 8 8 9 9 9 9 9 10 10 9 10
14 14 13 13 13 13 12 12 11 10 10 9 9 9 9 9 8 8 7 6 6 6 6 6 7 6 6 6 6 7 7 7 8 8 8 8 8 9 10 10 10 10
14 14 14 13 13 13 13 13 12 12 11 11 10 10 10 9 9 10 9 8 8 7 7 6 6 6 5 5 6 6 6 6 6 7 7 7 7 7 8 9 9 9
15 15 14 14 14 14 13 13 13 13 12 12 12 11 10 10 10 10 10 9 9 8 8 7 7 6 6 5 6 6 6 6 6 6 6 6 6 6 6 6 7 7
16 16 15 14 14 14 14 13 13 13 12 12 12 12 11 10 11 11 10 10 10 9 9 9 8 8 7 7 7 7 7 7 7 7 7 7 6 5 5 5 5 6
16 16 15 15 14 14 14 14 14 13 12 12 12 11 11 11 12 11 10 10 10 10 10 10 10 9 9 8 8 8 8 7 7 7 7 7 6 6 5 5 5 5
17 16 16 15 15 14 14 14 14 13 12 12 12 12 11 11 12 12 11 10 10 11 11 10 10 10 10 10 9 9 9 8 9 8 7 7 7 7 6 5 5 6
18 18 17 16 15 15 14 15 14 14 13 13 13 12 11 11 11 12 12 11 11 12 12 11 11 11 11 11 11 10 10 10 10 9 8 8 8 8 9 7 5 6
19 19 19 19 18 16 15 14 14 14 15 15 15 14 13 12 12 12 12 11 12 12 12 12 12 12 11 12 12 11 11 11 11 10 9 10 9 9 10 9 7 7
21 20 20 20 20 19 17 15 16 16 16 16 15 15 14 14 13 13 12 12 11 11 12 13 13 12 12 13 12 12 11 11 11 10 10 10 10 10 10 10 9 9
24 23 21 20 21 20 19 18 18 19 19 18 16 15 15 15 14 14 13 13 12 13 13 14 13 12 13 14 13 12 11 11 11 10 10 9 9 10 10 10 10 10
27 26 25 25 24 22 21 21 21 23 23 22 21 19 17 16 16 15 14 14 14 15 16 15 14 14 15 15 14 12 11 11 12 11 11 10 10 10 11 11 12 11
29 27 26 24 22 21 22 22 22 24 24 23 23 22 19 19 18 17 16 16 16 18 20 18 17 16 16 16 15 14 13 13 13 13 13 12 12 12 14 14 14 14
31 30 28 25 22 21 22 24 23 23 24 24 25 25 25 25 22 19 19 18 18 21 23 22 20 20 19 17 15 15 15 14 15 15 15 14 14 16 17 17 16 16
31 30 29 27 24 24 25 26 26 25 25 26 27 28 30 28 23 21 21 22 23 25 25 24 23 22 21 20 19 18 17 16 17 17 16 17 19 20 20 19 18 18
32 32 31 29 27 27 28 28 28 28 28 28 29 30 32 28 23 22 24 25 26 26 25 24 24 23 22 22 21 20 20 19 20 20 19 20 22 23 22 21 20 21
32 34 34 31 30 31 30 30 30 30 30 30 31 33 33 29 25 25 27 28 28 28 26 25 24 23 23 22 22 21 21 21 21 21 22 23 24 24 23 23 23 23
29 31 33 33 33 32 29 28 29 30 30 30 32 35 34 32 29 28 30 31 31 29 28 27 26 24 23 22 22 23 22 22 22 22 23 24 24 24 24 24 24 25
27 27 29 31 32 30 26 25 27 29 30 30 32 33 33 32 31 30 32 33 32 31 29 28 27 26 25 24 24 24 24 24 24 23 24 24 24 24 24 24 24 24
25 25 25 26 27 27 26 26 26 28 28 28 29 29 29 28 28 28 30 32 33 34 33 31 29 28 27 27 26 26 25 24 24 24 24 25 24 24 24 24 24 23

ECMWFNIL_700_spd_141.txt.gz
Wind_Speed
13 13 12 12 12 11 11 11 10 10 9 9 9 8 8 8 8 8 8 8 8 8 8 8 8 9 8 8 9 9 9 9 9 9 9 10 10 9 9 11 10 10
13 13 13 12 11 11 11 11 11 10 9 9 9 9 8 8 7 7 7 7 7 7 7 7 8 8 7 7 7 8 8 7 8 8 8 9 9 8 8 9 9 9
13 13 13 12 12 11 11 10 10 10 10 9 8 8 8 7 7 6 6 6 6 7 8 8 8 8 7 7 7 7 7 7 7 7 7 8 8 7 7 7 7 8
13 13 13 13 12 12 11 10 9 9 9 9 8 7 7 7 7 7 6 6 6 6 7 8 8 8 8 8 7 7 7 6 7 6 7 8 7 7 7 7 7 6
13 13 13 13 12 11 11 11 10 9 9 9 8 8 7 6 6 7 7 7 7 7 7 8 8 9 9 9 8 8 7 7 7 6 6 7 7 7 7 7 7 7
13 13 13 12 12 11 11 11 10 10 9 8 8 8 8 7 7 6 7 7 7 8 8 8 8 9 9 10 9 9 9 8 7 8 8 7 7 7 8 8 8 7
12 13 13 12 12 12 11 11 10 10 10 9 8 8 8 8 7 7 7 7 7 8 9 9 9 9 9 9 9 9 9 8 8 8 8 8 8 8 8 8 8 7
13 13 13 12 12 12 13 12 11 11 10 10 9 9 9 8 8 8 8 7 8 8 8 8 8 8 9 9 9 9 8 8 8 8 8 8 8 8 9 9 8 8
15 14 13 13 13 13 13 13 12 11 11 11 10 10 10 9 9 9 8 8 7 8 8 8 8 8 8 8 9 9 8 8 8 8 8 8 9 9 9 9 8 8
16 15 14 13 13 13 13 13 12 12 12 11 11 11 10 10 10 10 9 8 8 7 7 8 8 8 8 8 9 8 8 8 8 8 8 8 8 8 8 7 7 7
16 15 15 14 14 14 14 13 13 13 12 12 12 11 10 10 10 9 9 9 9 8 8 8 8 8 8 8 8 8 8 8 8 7 7 7 7 7 7 7 7 7
17 16 15 14 14 14 14 14 14 14 13 13 12 11 11 11 10 10 10 10 10 10 10 9 9 9 9 9 9 9 9 8 8 7 7 7 7 7 7 7 7 7
17 16 15 15 14 14 15 14 14 14 14 14 13 12 12 12 11 10 11 11 11 11 11 10 11 10 10 11 10 10 9 8 8 8 8 7 7 7 7 8 7 8
16 16 15 14 14 14 15 14 14 14 14 15 14 13 13 13 12 11 12 12 12 12 12 11 11 11 12 11 11 10 10 9 9 9 8 8 8 8 9 8 8 9
17 17 16 15 15 15 14 14 14 15 15 16 15 15 14 13 13 12 12 13 13 13 13 13 13 13 12 12 12 11 11 11 11 10 9 9 9 10 10 10 10 10
19 19 19 18 18 17 16 15 15 16 16 17 17 17 16 15 14 13 12 13 13 13 13 14 14 13 12 12 12 12 11 12 12 11 11 11 11 11 12 12 12 12
21 20 20 20 20 19 18 18 18 18 18 17 18 18 18 17 16 14 13 13 14 14 15 15 14 13 13 13 13 12 12 12 12 12 12 12 11 11 12 13 13 13
21 20 19 18 19 19 19 19 20 20 19 17 17 17 17 18 17 17 17 16 16 17 17 16 14 13 13 14 14 13 12 12 12 13 12 12 12 13 13 13 13 14
21 20 19 18 18 19 19 18 19 20 20 19 18 17 17 17 17 17 17 18 18 18 17 16 15 14 14 14 14 14 13 13 14 14 14 14 15 15 14 13 13 14
23 22 20 20 20 21 20 19 18 19 19 20 20 19 18 19 19 18 18 19 20 20 19 17 16 16 15 15 15 14 13 14 15 16 17 17 17 16 15 14 14 14
25 24 24 24 24 23 23 22 22 22 22 22 22 21 21 22 21 20 20 21 21 21 21 20 18 17 16 16 16 15 15 15 16 17 18 18 17 16 16 16 15 15
27 27 26 26 26 25 24 24 24 25 26 25 25 24 25 25 24 23 23 24 23 23 23 23 21 20 19 18 18 18 18 18 19 19 19 19 18 18 18 18 18 18
32 30 29 29 28 26 26 26 26 27 28 27 26 27 28 28 27 26 26 26 25 25 26 26 26 24 23 21 21 20 21 21 21 21 20 20 20 20 20 20 20 20
33 32 31 30 29 28 28 29 30 30 30 29 28 29 31 31 30 29 29 28 27 26 28 31 31 29 27 25 24 23 23 22 22 21 20 20 20 20 20 20 21 21
28 26 25 25 26 27 29 30 31 32 31 28 26 28 30 31 30 31 31 31 30 30 32 35 34 32 30 29 28 27 26 24 23 22 21 20 20 20 21 20 20 21
23 21 20 19 21 24 26 27 28 29 28 25 23 25 27 28 29 31 32 32 32 32 34 36 35 33 32 31 30 29 29 28 26 23 22 22 22 22 21 21 21 21

ECMWFNIL_700_spd_144.txt.gz
Wind_Speed
13 14 14 13 14 14 13 13 12 12 12 12 12 12 12 11 11 11 11 11 11 11 12 12 11 11 10 11 11 12 13 13 13 12 12 12 11 11 11 11 11 10
13 13 14 14 14 14 14 14 13 13 12 12 12 12 12 12 11 11 11 11 11 12 13 12 12 11 10 10 10 11 11 11 11 11 11 11 10 10 10 10 11 10
13 13 13 13 13 13 14 14 14 14 13 12 12 11 12 12 11 11 11 12 12 13 13 13 12 12 11 11 11 11 10 10 10 11 11 10 10 10 10 9 10 10
13 13 13 12 12 12 13 13 13 13 13 13 12 12 12 12 12 11 11 12 12 12 13 12 13 12 12 12 12 11 11 10 10 10 10 10 10 10 10 9 9 9
14 14 14 13 13 13 13 13 13 12 12 12 12 12 12 12 12 11 11 11 11 12 12 12 12 12 12 12 11 11 10 9 9 9 9 9 10 10 10 9 9 9
15 15 15 15 15 14 14 14 13 13 13 13 12 12 12 12 12 12 12 12 11 11 12 12 12 12 12 12 11 10 10 9 9 9 9 9 10 10 10 10 10 10
15 15 15 15 15 15 14 15 14 14 14 13 12 12 12 12 12 13 13 13 13 12 12 12 12 12 12 12 11 11 11 10 10 11 11 12 12 12 12 12 12 11
16 16 16 16 16 15 15 15 15 14 14 13 13 12 12 13 13 12 12 12 13 13 13 13 13 13 14 13 13 13 13 13 13 13 13 13 13 13 14 13 13 12
16 16 16 16 16 16 16 16 15 15 14 13 13 13 13 12 12 12 12 11 11 12 12 13 14 14 14 14 15 15 15 14 14 14 14 14 14 14 14 14 13 13
17 16 16 16 16 16 16 16 16 15 15 14 14 14 14 13 13 13 12 12 11 11 12 12 13 14 14 14 14 15 15 14 14 14 13 13 14 14 14 13 13 13
17 17 16 16 16 17 17 16 17 16 16 16 16 15 15 14 14 14 13 12 11 12 12 13 13 14 13 13 13 14 14 13 13 13 13 12 12 12 12 12 12 12
18 18 17 16 16 17 17 17 17 17 16 17 17 16 16 15 14 14 14 14 13 13 13 14 14 14 14 14 13 13 13 13 12 13 12 12 12 12 12 12 12 12
19 18 18 17 16 16 17 17 17 17 17 17 16 16 16 15 14 13 13 14 15 15 14 15 15 15 15 15 14 14 13 13 13 13 13 13 13 13 13 13 12 12
19 19 19 18 17 17 17 17 17 17 17 17 16 16 16 15 15 14 14 15 15 15 16 16 16 15 15 15 14 14 14 14 14 14 14 13 13 14 13 13 13 13
19 20 20 19 19 19 18 18 18 18 18 18 17 17 16 16 16 16 15 16 16 16 16 16 16 16 15 15 15 15 15 14 15 15 15 14 15 15 14 14 14 15
20 21 21 21 21 20 20 19 19 19 19 18 17 17 18 18 17 17 17 16 17 17 17 17 17 17 16 16 16 16 16 16 16 16 16 16 16 16 15 16 17 17
23 22 22 22 21 20 20 20 20 20 20 19 18 19 19 19 19 18 18 17 18 19 19 18 18 17 16 16 16 16 17 17 17 17 17 18 18 18 17 18 19 19
24 24 23 22 22 21 21 21 21 20 20 20 19 19 20 20 20 20 19 19 19 19 18 17 17 16 17 17 18 18 18 18 18 18 19 20 19 18 18 18 18 18
24 24 24 22 22 22 22 22 22 22 21 21 20 20 20 20 20 20 20 20 20 19 18 16 16 17 17 18 19 19 19 19 20 20 20 20 18 18 18 18 17 16
24 24 23 22 22 22 22 22 23 23 23 22 22 22 21 20 20 19 20 20 19 18 18 18 18 18 18 18 19 19 19 20 21 21 20 18 17 18 18 17 17 16
24 24 24 23 22 22 22 22 23 23 22 22 22 22 22 22 21 21 20 20 20 19 19 20 19 19 19 19 19 20 20 21 23 22 20 19 18 19 19 18 18 17
25 26 25 25 25 25 25 25 24 24 23 23 23 23 22 22 22 22 22 22 22 22 22 23 22 21 21 21 21 21 21 22 23 22 21 20 20 19 19 19 19 19
27 27 27 27 28 29 30 29 27 27 27 26 25 24 24 25 24 24 24 24 24 25 25 25 25 24 23 23 24 24 23 23 24 23 23 22 22 21 21 21 20 20
30 29 29 31 33 33 32 32 31 31 31 30 28 28 27 28 28 27 27 27 27 27 27 27 27 27 26 25 26 26 26 26 26 26 26 26 26 25 24 23 22 21
31 29 31 35 37 34 30 30 31 31 31 31 31 31 31 31 32 31 30 29 30 31 30 29 29 29 28 28 28 28 29 29 29 28 28 28 27 27 25 24 23 22
30 29 31 34 33 29 25 26 28 30 32 32 32 32 32 33 34 34 33 32 32 33 33 33 33 32 31 31 31 32 33 33 33 32 31 29 28 28 27 26 24 22